This is the latest recevied weather packets stored in our database for station/object K3HW. If no packets are shown the sender has not sent any weather packets the latest 1 day(s).
| Time | Temp. | Humidity | Pressure | Rain* | Wind** | Luminosity | Snow |
|---|---|---|---|---|---|---|---|
| 1778018744 | 27.22° C | 36% | 1012.2 hPa | 0 mm | 0 m/s | 85 W/m² | - |
| 1778018442 | 27.22° C | 37% | 1012 hPa | 0 mm | 0 m/s | 147 W/m² | - |
| 1778018140 | 27.22° C | 35% | 1012.1 hPa | 0 mm | 0 m/s | 156 W/m² | - |
| 1778017837 | 27.78° C | 35% | 1011.9 hPa | 0 mm | 0 m/s | 84 W/m² | - |
| 1778017536 | 27.78° C | 36% | 1012.1 hPa | 0 mm | 0 m/s | 222 W/m² | - |
| 1778017232 | 27.78° C | 34% | 1012.2 hPa | 0 mm | 0 m/s | 185 W/m² | - |
| 1778016930 | 27.78° C | 35% | 1012.1 hPa | 0 mm | 0 m/s | 234 W/m² | - |
| 1778016626 | 27.78° C | 34% | 1012.1 hPa | 0 mm | 0 m/s | 186 W/m² | - |
| 1778016322 | 27.22° C | 36% | 1011.9 hPa | 0 mm | 0 m/s | 245 W/m² | - |
| 1778016020 | 27.22° C | 34% | 1012.1 hPa | 0 mm | 1.34 m/s, 145° | 81 W/m² | - |
| 1778015717 | 27.78° C | 34% | 1012.2 hPa | 0 mm | 1.79 m/s, 117° | 62 W/m² | - |
| 1778015414 | 27.78° C | 34% | 1011.8 hPa | 0 mm | 0.89 m/s, 355° | 203 W/m² | - |
| 1778015110 | 27.22° C | 33% | 1011.9 hPa | 0 mm | 0.89 m/s, 56° | 314 W/m² | - |
| 1778014808 | 27.22° C | 32% | 1012.2 hPa | 0 mm | 2.68 m/s, 254° | 203 W/m² | - |
| 1778014505 | 27.22° C | 33% | 1012.1 hPa | 0 mm | 1.34 m/s, 296° | 72 W/m² | - |
| 1778014202 | 27.22° C | 33% | 1012.1 hPa | 0 mm | 3.13 m/s, 32° | 234 W/m² | - |
| 1778013900 | 27.22° C | 33% | 1012.1 hPa | 0 mm | 2.24 m/s, 77° | 202 W/m² | - |
| 1778013597 | 27.22° C | 34% | 1012 hPa | 0 mm | 1.34 m/s, 221° | 155 W/m² | - |
| 1778013293 | 27.78° C | 35% | 1012.2 hPa | 0 mm | 0.89 m/s, 194° | 146 W/m² | - |
| 1778012990 | 27.78° C | 35% | 1012 hPa | 0 mm | 1.79 m/s, 87° | 74 W/m² | - |
| 1778012686 | 27.22° C | 35% | 1012 hPa | 0 mm | 0.45 m/s, 110° | 68 W/m² | - |
| 1778012382 | 27.22° C | 33% | 1012.1 hPa | 0 mm | 1.79 m/s, 201° | 71 W/m² | - |
| 1778012080 | 27.22° C | 34% | 1012.2 hPa | 0 mm | 1.34 m/s, 56° | 112 W/m² | - |
| 1778011777 | 27.22° C | 35% | 1012.4 hPa | 0 mm | 0.45 m/s, 113° | 113 W/m² | - |
| 1778011475 | 27.78° C | 34% | 1012.2 hPa | 0 mm | 2.68 m/s, 232° | 148 W/m² | - |
* Rain latest hour (hover to see other rain measurements)
** Current wind speed in m/s (hover to see current wind gust speed)